• In Hungary
  • List of Countries
  • For 7 days
  • Water Temperature
  • Satellite Maps
  • Weather Map
  • News
  • Weather Widgets
  • user-avatar
    Login

    Hourly Weather Sankt Polten

    Today, 16 August, Wednesday

    Time Temperature Precipitation Wind Pressure Humidity
    00:00 +20°C° 0 mm 1 mps 738 mmHg 75%
    01:00 +20°C° 0 mm 1 mps 738 mmHg 78%
    02:00 +20°C° 0 mm 1 mps 738 mmHg 78%
    03:00 +20°C° 0 mm 1 mps 738 mmHg 78%
    04:00 +19°C° 0 mm 1 mps 738 mmHg 78%
    05:00 +20°C° 0 mm 1 mps 739 mmHg 76%
    06:00 +21°C° 0 mm 1 mps 739 mmHg 75%
    07:00 +21°C° 0 mm 2 mps 740 mmHg 76%
    08:00 +23°C° 0.2 mm 2 mps 740 mmHg 75%
    09:00 +24°C° 0.2 mm 3 mps 740 mmHg 73%
    10:00 +25°C° 0.2 mm 3 mps 740 mmHg 72%
    11:00 +26°C° 0.4 mm 3 mps 740 mmHg 69%
    12:00 +27°C° 0.4 mm 3 mps 740 mmHg 65%
    13:00 +27°C° 0.4 mm 3 mps 740 mmHg 62%
    14:00 +27°C° 0.6 mm 2 mps 739 mmHg 63%
    15:00 +27°C° 0.6 mm 2 mps 739 mmHg 65%
    16:00 +27°C° 0.6 mm 2 mps 739 mmHg 66%
    17:00 +25°C° 0.2 mm 1 mps 739 mmHg 72%
    18:00 +24°C° 0.2 mm 1 mps 739 mmHg 77%
    19:00 +22°C° 0.2 mm 1 mps 739 mmHg 83%
    20:00 +22°C° 0.1 mm 1 mps 739 mmHg 85%
    21:00 +21°C° 0.1 mm 1 mps 739 mmHg 87%
    22:00 +20°C° 0.1 mm 1 mps 740 mmHg 89%
    23:00 +20°C° 0 mm 1 mps 740 mmHg 90%

    Tomorrow, 17 August, Thursday

    Time Temperature Precipitation Wind Pressure Humidity
    00:00 +19°C° 0 mm 1 mps 740 mmHg 91%
    01:00 +19°C° 0 mm 1 mps 740 mmHg 93%
    02:00 +19°C° 0 mm 1 mps 740 mmHg 93%
    03:00 +18°C° 0 mm 1 mps 739 mmHg 93%
    04:00 +18°C° 0 mm 1 mps 739 mmHg 94%
    05:00 +19°C° 0 mm 1 mps 739 mmHg 90%
    06:00 +20°C° 0 mm 1 mps 739 mmHg 87%
    07:00 +21°C° 0 mm 1 mps 740 mmHg 84%
    08:00 +23°C° 0 mm 1 mps 740 mmHg 75%
    09:00 +25°C° 0 mm 1 mps 740 mmHg 65%
    10:00 +28°C° 0 mm 1 mps 740 mmHg 56%
    11:00 +29°C° 0 mm 1 mps 739 mmHg 51%
    12:00 +30°C° 0 mm 1 mps 739 mmHg 47%
    13:00 +31°C° 0 mm 1 mps 738 mmHg 43%
    14:00 +31°C° 0 mm 1 mps 738 mmHg 43%
    15:00 +30°C° 0 mm 1 mps 738 mmHg 44%
    16:00 +30°C° 0 mm 1 mps 738 mmHg 44%
    17:00 +28°C° 0.1 mm 1 mps 738 mmHg 52%
    18:00 +26°C° 0.1 mm 1 mps 738 mmHg 60%
    19:00 +24°C° 0.1 mm 1 mps 737 mmHg 68%
    20:00 +23°C° 0 mm 1 mps 738 mmHg 69%
    21:00 +22°C° 0 mm 1 mps 738 mmHg 71%
    22:00 +22°C° 0 mm 1 mps 738 mmHg 73%
    23:00 +21°C° 0 mm 1 mps 738 mmHg 74%

    Day after tomorrow, 18 August, Friday

    Time Temperature Precipitation Wind Pressure Humidity
    00:00 +21°C° 0 mm 1 mps 738 mmHg 76%
    01:00 +21°C° 0 mm 1 mps 738 mmHg 78%
    02:00 +20°C° 0 mm 1 mps 738 mmHg 79%
    03:00 +20°C° 0 mm 1 mps 738 mmHg 80%
    04:00 +20°C° 0 mm 1 mps 737 mmHg 81%
    05:00 +21°C° 0 mm 1 mps 738 mmHg 78%
    06:00 +20°C° 0 mm 0 mps 738 mmHg 75%
    07:00 +22°C° 0 mm 0 mps 738 mmHg 72%
    08:00 +26°C° 0 mm 1 mps 738 mmHg 65%
    09:00 +28°C° 0 mm 1 mps 738 mmHg 57%
    10:00 +30°C° 0 mm 1 mps 738 mmHg 49%
    11:00 +31°C° 0 mm 1 mps 737 mmHg 46%
    12:00 +32°C° 0 mm 2 mps 737 mmHg 43%
    13:00 +34°C° 0 mm 2 mps 737 mmHg 40%
    14:00 +34°C° 0 mm 2 mps 736 mmHg 40%
    15:00 +34°C° 0 mm 2 mps 736 mmHg 40%
    16:00 +34°C° 0 mm 2 mps 735 mmHg 40%
    17:00 +31°C° 0 mm 2 mps 735 mmHg 47%
    18:00 +29°C° 0 mm 2 mps 735 mmHg 54%
    19:00 +27°C° 0 mm 2 mps 734 mmHg 62%
    20:00 +26°C° 0 mm 2 mps 734 mmHg 63%
    21:00 +25°C° 0 mm 2 mps 734 mmHg 64%
    22:00 +24°C° 0 mm 1 mps 734 mmHg 66%
    23:00 +23°C° 0 mm 1 mps 734 mmHg 67%

    19 August, Saturday

    Time Temperature Precipitation Wind Pressure Humidity
    00:00 +22°C° 0 mm 1 mps 734 mmHg 68%
    01:00 +22°C° 0 mm 1 mps 734 mmHg 68%
    02:00 +21°C° 0 mm 2 mps 734 mmHg 73%
    03:00 +20°C° 0 mm 3 mps 735 mmHg 77%
    04:00 +20°C° 0 mm 3 mps 735 mmHg 82%
    05:00 +20°C° 0.2 mm 4 mps 735 mmHg 82%
    06:00 +20°C° 0.2 mm 4 mps 736 mmHg 83%
    07:00 +20°C° 0.2 mm 4 mps 736 mmHg 83%
    08:00 +20°C° 0.3 mm 4 mps 737 mmHg 83%
    09:00 +19°C° 0.3 mm 4 mps 737 mmHg 82%
    10:00 +19°C° 0.3 mm 4 mps 737 mmHg 82%
    11:00 +19°C° 1 mm 3 mps 737 mmHg 84%
    12:00 +18°C° 1 mm 3 mps 737 mmHg 87%
    13:00 +18°C° 1 mm 3 mps 737 mmHg 90%
    14:00 +18°C° 2.1 mm 2 mps 738 mmHg 91%
    15:00 +17°C° 2.1 mm 2 mps 738 mmHg 92%
    16:00 +17°C° 2.1 mm 2 mps 738 mmHg 93%
    17:00 +17°C° 1.5 mm 2 mps 738 mmHg 94%
    18:00 +17°C° 1.5 mm 2 mps 738 mmHg 94%
    19:00 +16°C° 1.5 mm 1 mps 738 mmHg 94%
    20:00 +16°C° 0.3 mm 1 mps 739 mmHg 95%
    21:00 +16°C° 0.3 mm 1 mps 739 mmHg 95%
    22:00 +16°C° 0.3 mm 2 mps 739 mmHg 95%
    23:00 +15°C° 0.2 mm 2 mps 739 mmHg 95%

    20 August, Sunday

    Time Temperature Precipitation Wind Pressure Humidity
    00:00 +15°C° 0.2 mm 2 mps 739 mmHg 95%
    01:00 +15°C° 0.2 mm 2 mps 739 mmHg 95%
    02:00 +15°C° 0.1 mm 2 mps 739 mmHg 94%
    03:00 +15°C° 0.1 mm 2 mps 739 mmHg 93%
    04:00 +15°C° 0.1 mm 2 mps 739 mmHg 93%
    05:00 +14°C° 0 mm 3 mps 740 mmHg 90%
    06:00 +14°C° 0 mm 3 mps 740 mmHg 88%
    07:00 +14°C° 0 mm 3 mps 740 mmHg 86%
    08:00 +17°C° 0.1 mm 4 mps 741 mmHg 79%
    09:00 +18°C° 0.1 mm 4 mps 741 mmHg 72%
    10:00 +19°C° 0.1 mm 4 mps 741 mmHg 65%
    11:00 +20°C° 0.3 mm 4 mps 741 mmHg 64%
    12:00 +20°C° 0.3 mm 4 mps 741 mmHg 63%
    13:00 +21°C° 0.3 mm 4 mps 740 mmHg 62%
    14:00 +21°C° 0.2 mm 4 mps 740 mmHg 62%
    15:00 +21°C° 0.2 mm 4 mps 740 mmHg 62%
    16:00 +20°C° 0.2 mm 3 mps 740 mmHg 61%
    17:00 +19°C° 0.1 mm 3 mps 740 mmHg 67%
    18:00 +18°C° 0.1 mm 3 mps 741 mmHg 73%
    19:00 +16°C° 0.1 mm 2 mps 741 mmHg 79%
    20:00 +15°C° 0 mm 2 mps 741 mmHg 82%
    21:00 +15°C° 0 mm 2 mps 741 mmHg 84%
    22:00 +14°C° 0 mm 2 mps 742 mmHg 86%
    23:00 +14°C° 0 mm 2 mps 742 mmHg 87%

    21 August, Monday

    Time Temperature Precipitation Wind Pressure Humidity
    00:00 +13°C° 0 mm 2 mps 742 mmHg 88%
    01:00 +13°C° 0 mm 2 mps 741 mmHg 88%
    02:00 +13°C° 0 mm 2 mps 741 mmHg 89%
    03:00 +12°C° 0 mm 2 mps 741 mmHg 89%
    04:00 +12°C° 0 mm 2 mps 741 mmHg 89%
    05:00 +13°C° 0 mm 2 mps 741 mmHg 86%
    06:00 +14°C° 0 mm 2 mps 741 mmHg 83%
    07:00 +15°C° 0 mm 2 mps 741 mmHg 80%
    08:00 +17°C° 0 mm 2 mps 741 mmHg 71%
    09:00 +19°C° 0 mm 2 mps 741 mmHg 61%
    10:00 +21°C° 0 mm 2 mps 741 mmHg 52%
    11:00 +23°C° 0 mm 2 mps 740 mmHg 48%
    12:00 +24°C° 0 mm 2 mps 740 mmHg 45%
    13:00 +25°C° 0 mm 2 mps 740 mmHg 42%
    14:00 +25°C° 0 mm 2 mps 739 mmHg 42%
    15:00 +25°C° 0 mm 2 mps 739 mmHg 43%
    16:00 +25°C° 0 mm 2 mps 739 mmHg 43%
    17:00 +23°C° 0 mm 2 mps 739 mmHg 52%
    18:00 +21°C° 0 mm 1 mps 739 mmHg 61%
    19:00 +19°C° 0 mm 1 mps 739 mmHg 69%
    20:00 +18°C° 0 mm 1 mps 739 mmHg 71%
    21:00 +16°C° 0 mm 1 mps 739 mmHg 73%
    22:00 +15°C° 0 mm 1 mps 739 mmHg 74%
    23:00 +15°C° 0 mm 1 mps 739 mmHg 73%
    Show more